LRTR Weather Reports


time (UTC)temp
C
wind
direction
speed
KPH
gust
KPH
rain 1hr
cm
rain 24hr
cm
rain mn
cm
humidity
%
barometer
mb
20260504214805 8 3.2 0.0 0.00 0.00 0.00 71 1016.0
20260504213321 8 3.2 0.0 0.00 0.00 0.00 71 1016.0
20260504211804 8 50 8.0 0.0 0.00 0.00 0.00 76 1016.0
20260504210305 8 50 8.0 0.0 0.00 0.00 0.00 76 1016.0
20260504204805 11 40 3.2 0.0 0.00 0.00 0.00 67 1016.0
20260504203306 11 40 3.2 0.0 0.00 0.00 0.00 67 1016.0
20260504201804 16 1.6 0.0 0.00 0.00 0.00 45 1016.0
20260504200305 16 1.6 0.0 0.00 0.00 0.00 45 1016.0
20260504194805 15 290 3.2 0.0 0.00 0.00 0.00 51 1016.0
20260504193305 15 290 3.2 0.0 0.00 0.00 0.00 51 1016.0
20260504191805 16 280 4.8 0.0 0.00 0.00 0.00 45 1016.0
20260504190305 16 280 4.8 0.0 0.00 0.00 0.00 45 1016.0
20260504184805 17 300 4.8 0.0 0.00 0.00 0.00 40 1016.0
20260504183315 17 300 4.8 0.0 0.00 0.00 0.00 40 1016.0
20260504181805 18 280 9.7 0.0 0.00 0.00 0.00 35 1016.0
20260504180305 18 280 9.7 0.0 0.00 0.00 0.00 35 1016.0
20260504174805 21 280 8.0 0.0 0.00 0.00 0.00 31 1016.0
20260504173305 21 280 8.0 0.0 0.00 0.00 0.00 31 1016.0
20260504171805 22 290 8.0 0.0 0.00 0.00 0.00 27 1016.0
20260504170305 22 290 8.0 0.0 0.00 0.00 0.00 27 1016.0
20260504160306 23 270 8.0 0.0 0.00 0.00 0.00 24 1016.0
20260504150305 25 280 9.7 0.0 0.00 0.00 0.00 24 1016.0
20260504140306 23 4.8 0.0 0.00 0.00 0.00 24 1017.0
20260504130305 25 8.0 0.0 0.00 0.00 0.00 24 1017.0
20260504120304 23 250 11.3 0.0 0.00 0.00 0.00 27 1018.0
20260504110305 22 4.8 0.0 0.00 0.00 0.00 29 1019.0
20260504100305 21 4.8 0.0 0.00 0.00 0.00 33 1019.0
20260504081805 17 3.2 0.0 0.00 0.00 0.00 42 1020.0
20260504080304 17 3.2 0.0 0.00 0.00 0.00 42 1020.0
20260504070306 13 110 4.8 0.0 0.00 0.00 0.00 51 1020.0
20260504050315 7 100 11.3 0.0 0.00 0.00 0.00 76 1020.0
20260504044805 3 100 9.7 0.0 0.00 0.00 0.00 87 1020.0
20260504043305 3 100 9.7 0.0 0.00 0.00 0.00 87 1020.0
20260504041805 2 100 11.3 0.0 0.00 0.00 0.00 87 1020.0
20260504040305 2 100 11.3 0.0 0.00 0.00 0.00 87 1020.0
20260504034805 2 110 9.7 0.0 0.00 0.00 0.00 87 1020.0
20260504033305 2 110 9.7 0.0 0.00 0.00 0.00 87 1020.0
20260504031805 3 140 4.8 0.0 0.00 0.00 0.00 87 1019.0
20260504030420 3 140 4.8 0.0 0.00 0.00 0.00 87 1019.0
20260504024806 2 60 9.7 0.0 0.00 0.00 0.00 93 1019.0
20260504023305 2 60 9.7 0.0 0.00 0.00 0.00 93 1019.0
20260504021804 2 60 9.7 0.0 0.00 0.00 0.00 87 1020.0
20260504020305 2 60 9.7 0.0 0.00 0.00 0.00 87 1020.0
20260504014805 2 50 8.0 0.0 0.00 0.00 0.00 93 1019.0
20260504013310 2 50 8.0 0.0 0.00 0.00 0.00 93 1019.0
20260504011919 3 80 3.2 0.0 0.00 0.00 0.00 87 1019.0
20260504010305 3 80 3.2 0.0 0.00 0.00 0.00 87 1019.0
20260504004919 2 70 8.0 0.0 0.00 0.00 0.00 93 1019.0
20260504003305 2 70 8.0 0.0 0.00 0.00 0.00 93 1019.0
20260504001805 2 70 8.0 0.0 0.00 0.00 0.00 93 1020.0
20260504000305 2 70 8.0 0.0 0.00 0.00 0.00 93 1020.0
20260503234844 3 70 4.8 0.0 0.00 0.00 0.00 87 1019.0
20260503233305 3 70 4.8 0.0 0.00 0.00 0.00 87 1019.0
20260503231808 7 140 9.7 0.0 0.00 0.00 0.00 76 1019.0
20260503230317 7 140 9.7 0.0 0.00 0.00 0.00 76 1019.0
20260503224805 8 1.6 0.0 0.00 0.00 0.00 62 1019.0
20260503223317 8 1.6 0.0 0.00 0.00 0.00 62 1019.0
20260503221821 7 330 4.8 0.0 0.00 0.00 0.00 66 1019.0
20260503220347 7 330 4.8 0.0 0.00 0.00 0.00 66 1019.0